Location: Mainz-Finthen
(49.9906°N, 8.1713°E)
Time: 02:56:09
(UTC+00:00)

BlueWalker 3 - Pass Details

Date: 07 December 2022
Orbit: 499 x 517 km, 53.2° (Epoch: 26 January)

Event Time Altitude Azimuth Distance (km) Brightness Sun altitude
Rises 15:58:06 0° 283° (WNW) 2,637 6.4 -5.2°
Reaches altitude 10° 16:00:21 10° 288° (WNW) 1,746 5.4 -5.5°
Maximum altitude 16:04:14 54° 6° (N) 631 2.2 -6.0°
Drops below altitude 10° 16:08:05 10° 85° (E) 1,731 4.1 -6.6°
Enters shadow 16:08:51 - 87° (E) 2,036 4.5 -6.7°
